Regional Weather Roundup
Issued by NWS

Current Version | Previous Version | Text Only | Print | Product List | Glossary On
Versions: 1 2 3 4 5 6 7 8 9 10 11 12 13 14 15 16 17 18 19 20 21 22 23 24 25 26 27 28 29 30 31 32 33 34 35 36 37 38 39 40 41 42 43 44 45 46 47 48 49 50
000
ASUS44 KOUN 291610
RWROK

WEATHER ROUNDUP FOR OKLAHOMA
NATIONAL WEATHER SERVICE NORMAN OK
1100 AM CDT SAT APR 29 2017

NOTE: "FAIR" INDICATES FEW OR NO CLOUDS BELOW 12,000 FEET WITH NO
      SIGNIFICANT WEATHER AND/OR OBSTRUCTIONS TO VISIBILITY.

OKZ001>007-009>012-014-015-017-291700-
NORTHWEST OKLAHOMA AND THE PANHANDLE

CITY           SKY/WX    TMP DP  RH WIND       PRES   REMARKS
GAGE           LGT RAIN  42  40  92 N22       29.78F FOG     WCI  33
GUYMON         LGT SNOW  34  33  96 NW25G32   29.96S FOG     WCI  21
ENID/WOODRING  TSTM      48  48 100 NE22G43   29.62F
$$

OKZ016-021>023-033>039-044-045-291700-
SOUTHWEST OKLAHOMA

CITY           SKY/WX    TMP DP  RH WIND       PRES   REMARKS
LAWTON/REGL    LGT RAIN  50  49  96 N20       29.64S FOG
LAWTON/FT SILL LGT RAIN  49  49 100 NE16      29.63F
FREDERICK      LGT RAIN  51  48  89 N16       29.64S
CLINTON          N/A    N/A N/A N/A MISG      29.72F
HOBART         CLOUDY    49  46  90 N18G25    29.69F
ALTUS AFB      CLOUDY    50  46  87 N17G23    29.70R
$$

OKZ018>020-024>031-291700-
CENTRAL OKLAHOMA

CITY           SKY/WX    TMP DP  RH WIND       PRES   REMARKS
OKLAHOMA CITY  LGT RAIN  48  47  96 N15G23    29.66R
OKC/WILEY POST RAIN      49  49 100 N13G22    29.68R FOG
OKC/TINKER AFB LGT RAIN  51  50  97 N16G23    29.63F
GUTHRIE        LGT RAIN  49  48  97 NE9G29    29.66F FOG
$$

OKZ008-013-054>072-291700-
NORTHEAST OKLAHOMA

CITY           SKY/WX    TMP DP  RH WIND       PRES   REMARKS
TULSA          LGT RAIN  55  53  93 N15       29.65R
TULSA/JONES    LGT RAIN  56  53  90 N8        29.68R
PONCA CITY     LGT RAIN  50  47  89 NE26G37   29.67F
BARTLESVILLE   CLOUDY    52  49  89 N9G16     29.74R
MUSKOGEE       TSTM      58  58 100 N13       29.63R VSB 3/4
$$

OKZ032-040>043-046>053-073>077-291700-
SOUTH CENTRAL/SOUTHEAST OKLAHOMA

CITY           SKY/WX    TMP DP  RH WIND       PRES   REMARKS
ARDMORE/DWNTWN CLOUDY    64  59  82 NE6       29.59F
MCALESTER      CLOUDY    68  66  93 W10       29.62R
$$





USA.gov is the U.S. government's official web portal to all federal, state and local government web resources and services.